Stündliche Wetter Czyzkowo

Heute, 25 Oktober, Sonntag

Zeit Temperatur Niederschläge Wind Luftdruck Luftfeuchtigkeit
00:00 +10°C° 0 mm 3 m/S 748 mmHg 92%
01:00 +10°C° 0 mm 3 m/S 748 mmHg 93%
02:00 +10°C° 0 mm 3 m/S 748 mmHg 93%
03:00 +9°C° 0 mm 3 m/S 747 mmHg 94%
04:00 +9°C° 0 mm 3 m/S 747 mmHg 95%
05:00 +9°C° 0 mm 3 m/S 747 mmHg 95%
06:00 +8°C° 0 mm 3 m/S 747 mmHg 95%
07:00 +8°C° 0 mm 3 m/S 747 mmHg 94%
08:00 +10°C° 0 mm 4 m/S 747 mmHg 89%
09:00 +11°C° 0 mm 4 m/S 747 mmHg 83%
10:00 +12°C° 0 mm 4 m/S 747 mmHg 77%
11:00 +13°C° 0 mm 5 m/S 747 mmHg 74%
12:00 +14°C° 0 mm 5 m/S 747 mmHg 71%
13:00 +15°C° 0 mm 5 m/S 747 mmHg 68%
14:00 +15°C° 0 mm 4 m/S 746 mmHg 70%
15:00 +14°C° 0 mm 4 m/S 746 mmHg 73%
16:00 +13°C° 0 mm 3 m/S 745 mmHg 76%
17:00 +13°C° 0 mm 4 m/S 745 mmHg 79%
18:00 +12°C° 0 mm 4 m/S 745 mmHg 83%
19:00 +12°C° 0 mm 4 m/S 745 mmHg 86%
20:00 +11°C° 0 mm 4 m/S 745 mmHg 87%
21:00 +11°C° 0 mm 4 m/S 745 mmHg 88%
22:00 +11°C° 0 mm 4 m/S 745 mmHg 89%
23:00 +11°C° 0 mm 4 m/S 744 mmHg 90%

Morgen, 26 Oktober, Montag

Zeit Temperatur Niederschläge Wind Luftdruck Luftfeuchtigkeit
00:00 +10°C° 0 mm 4 m/S 744 mmHg 91%
01:00 +10°C° 0 mm 4 m/S 744 mmHg 92%
02:00 +9°C° 0 mm 3 m/S 744 mmHg 93%
03:00 +9°C° 0 mm 3 m/S 743 mmHg 94%
04:00 +9°C° 0 mm 2 m/S 743 mmHg 95%
05:00 +8°C° 0 mm 3 m/S 743 mmHg 96%
06:00 +8°C° 0 mm 3 m/S 743 mmHg 96%
07:00 +8°C° 0 mm 3 m/S 743 mmHg 97%
08:00 +9°C° 0 mm 3 m/S 743 mmHg 93%
09:00 +10°C° 0 mm 3 m/S 743 mmHg 89%
10:00 +11°C° 0 mm 3 m/S 743 mmHg 84%
11:00 +12°C° 0 mm 3 m/S 742 mmHg 81%
12:00 +13°C° 0 mm 3 m/S 742 mmHg 78%
13:00 +14°C° 0 mm 3 m/S 742 mmHg 75%
14:00 +14°C° 0 mm 3 m/S 742 mmHg 77%
15:00 +14°C° 0 mm 2 m/S 742 mmHg 79%
16:00 +14°C° 0 mm 2 m/S 741 mmHg 82%
17:00 +14°C° 0.1 mm 2 m/S 742 mmHg 82%
18:00 +13°C° 0.1 mm 3 m/S 742 mmHg 83%
19:00 +12°C° 0.1 mm 3 m/S 742 mmHg 84%
20:00 +13°C° 0.1 mm 2 m/S 742 mmHg 86%
21:00 +13°C° 0.1 mm 2 m/S 742 mmHg 88%
22:00 +13°C° 0.1 mm 1 m/S 743 mmHg 90%
23:00 +12°C° 0 mm 1 m/S 743 mmHg 92%

übermorgen, 27 Oktober, Dienstag

Zeit Temperatur Niederschläge Wind Luftdruck Luftfeuchtigkeit
00:00 +12°C° 0 mm 1 m/S 743 mmHg 93%
01:00 +12°C° 0 mm 2 m/S 743 mmHg 94%
02:00 +10°C° 0 mm 2 m/S 743 mmHg 93%
03:00 +10°C° 0 mm 2 m/S 743 mmHg 92%
04:00 +10°C° 0 mm 2 m/S 743 mmHg 91%
05:00 +10°C° 0 mm 2 m/S 744 mmHg 91%
06:00 +11°C° 0 mm 1 m/S 744 mmHg 91%
07:00 +11°C° 0 mm 1 m/S 744 mmHg 91%
08:00 +11°C° 0 mm 1 m/S 744 mmHg 90%
09:00 +11°C° 0 mm 1 m/S 744 mmHg 89%
10:00 +11°C° 0 mm 1 m/S 744 mmHg 88%
11:00 +11°C° 0.2 mm 1 m/S 744 mmHg 89%
12:00 +11°C° 0.2 mm 1 m/S 744 mmHg 89%
13:00 +11°C° 0.2 mm 1 m/S 744 mmHg 90%
14:00 +11°C° 0.4 mm 1 m/S 744 mmHg 90%
15:00 +10°C° 0.4 mm 2 m/S 744 mmHg 90%
16:00 +9°C° 0.4 mm 3 m/S 744 mmHg 91%
17:00 +9°C° 0.5 mm 2 m/S 744 mmHg 91%
18:00 +9°C° 0.5 mm 2 m/S 745 mmHg 91%
19:00 +9°C° 0.5 mm 2 m/S 745 mmHg 92%
20:00 +9°C° 0.1 mm 2 m/S 745 mmHg 91%
21:00 +9°C° 0.1 mm 2 m/S 745 mmHg 91%
22:00 +9°C° 0.1 mm 2 m/S 746 mmHg 90%
23:00 +8°C° 0 mm 3 m/S 746 mmHg 91%

28 Oktober, Mittwoch

Zeit Temperatur Niederschläge Wind Luftdruck Luftfeuchtigkeit
00:00 +8°C° 0 mm 3 m/S 746 mmHg 92%
01:00 +7°C° 0 mm 3 m/S 746 mmHg 93%
02:00 +7°C° 0 mm 3 m/S 746 mmHg 93%
03:00 +7°C° 0 mm 3 m/S 746 mmHg 92%
04:00 +7°C° 0 mm 3 m/S 746 mmHg 92%
05:00 +7°C° 0 mm 3 m/S 746 mmHg 91%
06:00 +5°C° 0 mm 3 m/S 746 mmHg 91%
07:00 +5°C° 0 mm 4 m/S 747 mmHg 91%
08:00 +7°C° 0 mm 4 m/S 746 mmHg 84%
09:00 +8°C° 0 mm 5 m/S 746 mmHg 77%
10:00 +9°C° 0 mm 6 m/S 746 mmHg 70%
11:00 +10°C° 0 mm 6 m/S 746 mmHg 67%
12:00 +11°C° 0 mm 6 m/S 746 mmHg 64%
13:00 +13°C° 0 mm 6 m/S 746 mmHg 60%
14:00 +12°C° 0 mm 5 m/S 746 mmHg 64%
15:00 +11°C° 0 mm 4 m/S 746 mmHg 67%
16:00 +11°C° 0 mm 4 m/S 746 mmHg 71%
17:00 +10°C° 0 mm 4 m/S 746 mmHg 73%
18:00 +10°C° 0 mm 4 m/S 746 mmHg 75%
19:00 +8°C° 0 mm 4 m/S 746 mmHg 77%
20:00 +8°C° 0 mm 4 m/S 746 mmHg 78%
21:00 +8°C° 0 mm 4 m/S 746 mmHg 79%
22:00 +8°C° 0 mm 4 m/S 746 mmHg 79%
23:00 +7°C° 0 mm 4 m/S 746 mmHg 81%

29 Oktober, Donnerstag

Zeit Temperatur Niederschläge Wind Luftdruck Luftfeuchtigkeit
00:00 +7°C° 0 mm 4 m/S 746 mmHg 82%
01:00 +7°C° 0 mm 4 m/S 746 mmHg 84%
02:00 +7°C° 0 mm 4 m/S 746 mmHg 84%
03:00 +6°C° 0 mm 4 m/S 746 mmHg 84%
04:00 +6°C° 0 mm 4 m/S 746 mmHg 85%
05:00 +6°C° 0 mm 4 m/S 746 mmHg 85%
06:00 +6°C° 0 mm 4 m/S 746 mmHg 86%
07:00 +7°C° 0 mm 4 m/S 746 mmHg 86%
08:00 +7°C° 0.3 mm 5 m/S 746 mmHg 86%
09:00 +8°C° 0.3 mm 5 m/S 746 mmHg 86%
10:00 +8°C° 0.3 mm 6 m/S 746 mmHg 86%
11:00 +9°C° 0.1 mm 6 m/S 746 mmHg 80%
12:00 +10°C° 0.1 mm 6 m/S 747 mmHg 73%
13:00 +11°C° 0.1 mm 7 m/S 747 mmHg 67%
14:00 +10°C° 0.1 mm 6 m/S 747 mmHg 70%
15:00 +10°C° 0.1 mm 5 m/S 747 mmHg 72%
16:00 +10°C° 0.1 mm 4 m/S 748 mmHg 75%
17:00 +8°C° 0 mm 4 m/S 748 mmHg 78%
18:00 +9°C° 0 mm 3 m/S 748 mmHg 81%
19:00 +8°C° 0 mm 3 m/S 749 mmHg 84%
20:00 +8°C° 0 mm 3 m/S 749 mmHg 84%
21:00 +7°C° 0 mm 4 m/S 749 mmHg 84%
22:00 +7°C° 0 mm 4 m/S 749 mmHg 84%
23:00 +7°C° 0 mm 4 m/S 749 mmHg 85%

30 Oktober, Freitag

Zeit Temperatur Niederschläge Wind Luftdruck Luftfeuchtigkeit
00:00 +7°C° 0 mm 4 m/S 749 mmHg 85%
01:00 +7°C° 0 mm 5 m/S 749 mmHg 85%
02:00 +7°C° 0 mm 5 m/S 749 mmHg 84%
03:00 +7°C° 0 mm 6 m/S 749 mmHg 83%
04:00 +8°C° 0 mm 6 m/S 748 mmHg 82%
05:00 +8°C° 0.1 mm 6 m/S 748 mmHg 85%
06:00 +8°C° 0.1 mm 6 m/S 748 mmHg 87%
07:00 +9°C° 0.1 mm 6 m/S 748 mmHg 89%
08:00 +10°C° 0 mm 6 m/S 749 mmHg 87%
09:00 +10°C° 0 mm 6 m/S 749 mmHg 85%
10:00 +11°C° 0 mm 6 m/S 749 mmHg 83%
11:00 +13°C° 0 mm 6 m/S 749 mmHg 82%
12:00 +13°C° 0 mm 6 m/S 749 mmHg 80%
13:00 +14°C° 0 mm 6 m/S 750 mmHg 78%
14:00 +14°C° 0 mm 6 m/S 750 mmHg 79%
15:00 +13°C° 0 mm 5 m/S 750 mmHg 80%
16:00 +13°C° 0 mm 5 m/S 750 mmHg 80%
17:00 +13°C° 0 mm 5 m/S 750 mmHg 80%
18:00 +13°C° 0 mm 5 m/S 750 mmHg 80%
19:00 +13°C° 0 mm 4 m/S 750 mmHg 79%
20:00 +12°C° 0 mm 4 m/S 750 mmHg 81%
21:00 +12°C° 0 mm 4 m/S 750 mmHg 82%
22:00 +11°C° 0 mm 4 m/S 751 mmHg 83%
23:00 +11°C° 0 mm 4 m/S 751 mmHg 85%
Mehr zeigen

Wir brauchen deine Erlaubnis

Meteoprog und unser Service Anbieter werden persönliche Daten aufbewahren, so wie Cookies, Geräte Bezeichnung oder ähnliche Technologien von deinem Gerät und Prozess, so wie Persönliche Daten Inhalte und Werbungen, genauso wie social Media und den Verkehr zu analysieren.

  • Aufbewahrung und/oder Zugang zu deiner Geräte Informationen.

    Cookies, Geräte Bezeichnung oder andere Informationen, können aufbewahrt oder Zugang zu deinem Gerät erhalten, für den Grund, der oben angegeben wird.

  • Personalisierte Werbung und Inhalte, Messungen, Einblick in das Publikum und Produkt Entwicklung.

    Werbungen und Inhalte können personalisiert werden, basierend auf ein Profil. Mehr Daten können besser personalisierte Werbungen und Inhalte hinzufügen. Werbung und Inhalte können gezeigt und gemessen werden. Einblicke über das Publikum, welche die Werbung gesehen haben und den Inhalt, können abgeleitet werden. So wie Daten können genutzt werden, um es zu verbessern oder die Benutzer Erfahrung zu verbessern das System und die Software.

Wenn du “Ich stimme zu” klickst, erlaubst du uns, die Cookies zu benutzen die Geräte Bezeichnung, den Web oder ähnliche Technologien zu benutzen. Deine Settings, können in deinem Gerät bei deinem Browser geändert werden.

Für den bestimmten Zweck, berechtigten Interessen beruhen darauf, mehr als auf den Inhalt. Du kannst mehr darüber in unseren Privaten und Cookie Politik lesen.